Regional Weather Roundup
Issued by NWS Kansas City/Pleasant Hill, MO

Home | Current Version | Previous Version | Graphics & Text | Print | Product List | Glossary Off
Versions: 1 2 3 4 5 6 7 8 9 10 11 12 13 14 15 16 17 18 19 20 21 22 23 24 25 26 27 28 29 30 31 32 33 34 35 36 37 38 39 40 41 42 43 44 45 46 47 48 49 50

000
ASUS43 KEAX 271810
RWREAX

WEATHER ROUNDUP FOR EASTERN KANSAS AND NORTHWEST MISSOURI
NATIONAL WEATHER SERVICE KANSAS CITY/PLEASANT HILL MO
1200 PM CST THU NOV 27 2014

KSZ040-057-103>105-MOZ028-029-037-043-271900-
...KANSAS CITY METROPOLITAN AREA...

CITY           SKY/WX    TMP DP  RH WIND       PRES   REMARKS
K.C. INTL      PTSUNNY   30  21  69 VRB6      30.50F WCI  24
6HR MIN TEMP:  24; 6HR MAX TEMP:  30;

K.C. DOWNTOWN  CLOUDY    31  20  63 CALM      30.51F
6HR MIN TEMP:  26; 6HR MAX TEMP:  32;

LEES SUMMIT    CLOUDY    31  21  66 CALM      30.50F
6HR MIN TEMP:  26; 6HR MAX TEMP:  31;

OLATHE - IXD   SUNNY     31  21  66 VRB3      30.50F
6HR MIN TEMP:  20; 6HR MAX TEMP:  31; 6HR PCP: TRACE;

OLATHE - OJC   SUNNY     32  21  64 S6        30.48F WCI  26
6HR MIN TEMP:  23; 6HR MAX TEMP:  33;

LAWRENCE       SUNNY     31  20  63 S5        30.51F HAZE    WCI  26

$$

MOZ001>008-011>017-020>025-030>033-038>040-044>046-053-054-271900-
...NORTHERN AND CENTRAL MISSOURI...

CITY           SKY/WX    TMP DP  RH WIND       PRES   REMARKS
ST. JOSEPH     PTSUNNY   26  16  65 N5        30.53F WCI  20
6HR MIN TEMP:  22; 6HR MAX TEMP:  26;

MOSBY          CLOUDY    28  19  69 CALM      30.52F
WARRENSBURG    CLOUDY    30  21  69 W3        30.51F
WHITEMAN AFB   MOSUNNY   30  21  68 W5        30.50F WCI  25
6HR MIN TEMP:  26; 6HR MAX TEMP:  30;

CLINTON        PTSUNNY   32  25  74 CALM      30.53F
SEDALIA        CLOUDY    31  22  69 CALM      30.51F
6HR MIN TEMP:  27; 6HR MAX TEMP:  31;

WARSAW         NOT AVBL
CHILLICOTHE      N/A     27  17  66 VRB3      30.53F
6HR MIN TEMP:  24; 6HR MAX TEMP:  28;

KIRKSVILLE     SUNNY     25  15  66 NW12      30.49F WCI  14
6HR MIN TEMP:  21; 6HR MAX TEMP:  25;


$$

MOZ041-047>049-056>058-063>065-088>090-097-271900-
...EASTERN AND SOUTHERN MISSOURI...

CITY           SKY/WX    TMP DP  RH WIND       PRES   REMARKS
ST. LOUIS INTL PTSUNNY   34  24  67 W15G21    30.47F WCI  24
6HR MIN TEMP:  30; 6HR MAX TEMP:  34;

SPIRIT OF STL  PTSUNNY   34  23  64 W14       30.47F WCI  25
COLUMBIA       MOSUNNY   35  24  64 W10G18    30.49F WCI  27
JEFFERSON CITY MOSUNNY   35  22  58 NW9       30.51F WCI  28
ROLLA          PTSUNNY   30  23  75 MISG      30.46F
LEBANON        MOSUNNY   36  25  64 NE5       30.47F WCI  32
OSAGE BEACH    CLOUDY    32  25  74 W3        30.50F
SPRINGFIELD    SUNNY     37  24  59 CALM      30.48F
BRANSON        MOSUNNY   39  27  60 NW8       30.50F WCI  34
NEVADA         SUNNY     36  23  60 CALM      30.53F
JOPLIN         SUNNY     37  23  56 VRB3      30.52F
WEST PLAINS    SUNNY     39  26  59 VRB6      30.47F WCI  35

$$

IAZ060-094-KSZ022-034>040-054-083-096-NEZ052-066-093-271900-
...KANSAS...SOUTHEAST NEBRASKA AND IOWA...

CITY           SKY/WX    TMP DP  RH WIND       PRES   REMARKS
TOPEKA         SUNNY     33  21  61 CALM      30.51F
6HR MIN TEMP:  25; 6HR MAX TEMP:  33;

MANHATTAN      SUNNY     33  20  58 MISG      30.47F
EMPORIA        SUNNY     33  21  61 VRB3      30.49F
CHANUTE        SUNNY     35  23  61 CALM      30.52F
WICHITA        MOSUNNY   40  19  43 S10       30.47F WCI  33
OMAHA          CLOUDY    18   1  47 SE3       30.52F
LINCOLN        SUNNY     26  11  52 S7        30.47F WCI  18
FALLS CITY     PTSUNNY   27   9  46 E6        30.49F WCI  20
LAMONI         CLOUDY    19  10  68 NW8       30.50F WCI   9
DES MOINES     CLOUDY    10  -2  58 NW9       30.54F WCI  -3

$$



USA.gov is the U.S. government's official web portal to all federal, state and local government web resources and services.